Notices

What's New in latest Release from April 7th, 2021:

- Updated Glossary, including Speed of Maximum Gust, and Total Hourly Precipitation

- Updated national and regional climate services offices contacts and prices information

- Addition of station inventory lists for 1981-2010, 1971-2000, and 1961-1990 Normals.

If you haven't already, please take our survey and provide feedback about our website: https://eccc.sondage-survey.ca/f/LanguageSelection.aspx?s=442ca660-fcf1-47c0-95a9-59707d6fd709

Hourly Data Report for December 27, 2018

CARBERRY CS
MANITOBA
Current Station Operator: ECCC - MSC

49°54'20.900" N
99°21'26.800" W
383.50 m
5010547
71170
WZE

Download Data

Hourly Data (December 2018)
Hourly Data Report for December 27, 2018
TIME
LST
Temp Definition
°C
Dew Point Definition
°C
Rel Hum Definition
%
Precip. Amount Definition
mm

Wind Dir Definition
10's deg

Wind Spd Definition
km/h
Visibility Definition
km
Stn Press Definition
kPa
Hmdx Definition


Wind Chill Definition


Weather Definition


00:00 -13.9 -15.9 85 0.5 3 6   97.53   -18 LegendNANA
01:00 -13.8 -15.9 84 0.3 2 8   97.49   -19 LegendNANA
02:00 -13.7 -15.8 84 0.2 3 7   97.49   -18 LegendNANA
03:00 -13.7 -15.8 84 0.0 2 8   97.45   -19 LegendNANA
04:00 -13.8 -15.9 84 0.2 36 12   97.40   -21 LegendNANA
05:00 -14.2 -16.4 84 0.0 1 10   97.36   -20 LegendNANA
06:00 -16.1 -18.0 85 0.0 36 10   97.38   -23 LegendNANA
07:00 -17.8 -19.5 86 0.0 36 9   97.37   -24 LegendNANA
08:00 -15.7 -17.5 86 0.2 1 14   97.40   -23 LegendNANA
09:00 -15.1 -17.1 85 0.0 2 18   97.50   -24 LegendNANA
10:00 -14.7 -16.8 84 0.0 1 21   97.50   -24 LegendNANA
11:00 -14.1 -16.7 81 0.0 1 25   97.48   -24 LegendNANA
12:00 -13.1 -15.6 82 0.0 1 22   97.41   -22 LegendNANA
13:00 -12.3 -15.0 81 0.0 1 23   97.35   -21 LegendNANA
14:00 -12.3 -15.0 80 0.0 36 30   97.34   -23 LegendNANA
15:00 -12.2 -14.8 81 0.0 36 29   97.40   -22 LegendNANA
16:00 -12.7 -15.3 81 0.0 36 29   97.52   -23 LegendNANA
17:00 -13.5 -16.1 81 0.0 36 26   97.61   -23 LegendNANA
18:00 -14.3 -17.7 76 0.0 35 24   97.69   -24 LegendNANA
19:00 -15.7 -18.9 77 0.0 36 32   97.71   -27 LegendNANA
20:00 -17.0 -19.9 78 0.0 1 26   97.73   -28 LegendNANA
21:00 -17.7 -20.4 79 0.0 36 25   97.74   -29 LegendNANA
22:00 -18.4 -21.1 79 0.0 1 21   97.78   -29 LegendNANA
23:00 -19.0 -21.8 79 0.0 36 26   97.76   -31 LegendNANA

Notes on Data Quality.

Legend

  • E = Estimated
  • M = Missing
  • NA = Not Available*
  • [empty] = Indicates an unobserved value
Date modified: